This is the latest recevied weather packets stored in our database for station/object KC8SWY-15. If no packets are shown the sender has not sent any weather packets the latest 10 day(s).
| Time | Temp. | Humidity | Pressure | Rain* | Wind** | Luminosity | Snow |
|---|---|---|---|---|---|---|---|
| 1778166560 | 8.89° C | 49% | 1015.5 hPa | 0 mm | - | - | - |
| 1778166260 | 8.89° C | 51% | 1015.6 hPa | 0 mm | - | - | - |
| 1778165960 | 8.33° C | 49% | 1015.4 hPa | 0 mm | - | - | - |
| 1778165660 | 8.33° C | 50% | 1015.5 hPa | 0 mm | - | - | - |
| 1778165360 | 8.33° C | 51% | 1015.6 hPa | 0 mm | - | - | - |
| 1778165060 | 8.33° C | 50% | 1015.5 hPa | 0 mm | - | - | - |
| 1778164760 | 8.33° C | 52% | 1015.5 hPa | 0 mm | - | - | - |
| 1778164460 | 8.33° C | 51% | 1015.5 hPa | 0 mm | - | - | - |
| 1778164160 | 7.78° C | 53% | 1015.5 hPa | 0 mm | - | - | - |
| 1778163860 | 7.78° C | 55% | 1015.6 hPa | 0 mm | - | - | - |
| 1778163560 | 7.78° C | 54% | 1015.6 hPa | 0 mm | - | - | - |
| 1778163260 | 7.78° C | 55% | 1015.6 hPa | 0 mm | - | - | - |
| 1778162960 | 7.78° C | 57% | 1015.6 hPa | 0 mm | - | - | - |
| 1778162660 | 7.78° C | 55% | 1015.7 hPa | 0 mm | - | - | - |
| 1778162360 | 7.78° C | 58% | 1015.7 hPa | 0 mm | - | - | - |
| 1778162060 | 7.22° C | 55% | 1015.8 hPa | 0 mm | - | - | - |
| 1778161760 | 7.78° C | 55% | 1015.7 hPa | 0 mm | - | - | - |
| 1778161460 | 7.78° C | 56% | 1015.7 hPa | 0 mm | - | - | - |
| 1778161160 | 7.22° C | 57% | 1015.7 hPa | 0 mm | - | - | - |
| 1778160860 | 7.22° C | 59% | 1015.7 hPa | 0 mm | - | - | - |
| 1778160560 | 7.22° C | 57% | 1015.8 hPa | 0 mm | - | - | - |
| 1778160260 | 7.22° C | 61% | 1015.7 hPa | 0 mm | - | - | - |
| 1778159960 | 6.67° C | 60% | 1015.6 hPa | 0 mm | - | - | - |
| 1778159660 | 6.67° C | 62% | 1015.5 hPa | 0 mm | - | - | - |
| 1778159360 | 6.67° C | 63% | 1015.5 hPa | 0 mm | - | - | - |
* Rain latest hour (hover to see other rain measurements)
** Current wind speed in m/s (hover to see current wind gust speed)